Weather History for Warrenton, VA

Change the Weather History Date:

Tuesday, January 29, 2013

  Actual Average (KHEF) Record (KHEF)
Temperature  
Mean Temperature 56 °F -  
Max Temperature 75 °F 41 °F 73 °F (2002)
Min Temperature 38 °F 22 °F 3 °F (2000)
Degree Days  
Heating Degree Days 8    
Growing Degree Days 6 (Base 50)    
Moisture  
Dew Point 51 °F    
Average Humidity 83    
Maximum Humidity 100    
Minimum Humidity 58    
Precipitation  
Precipitation 0.00 in - - ()
Sea Level Pressure  
Sea Level Pressure 30.04 in    
Wind  
Wind Speed 3 mph (South)    
Max Wind Speed 8 mph    
Max Gust Speed -    
Visibility 9 miles    
Events      
Averages and records for this station are not official NWS values.
T = Trace of Precipitation, MM = Missing Value Source: NWS Daily Summary

Daily Weather History Graph

Daily Weather History Graph

Search for Another Location

Airport:

Trip Planner

Search our weather history database for the weather conditions in past years. The results will help you decide how hot, cold, wet, or windy it might be!

Date:

Astronomy

Jan. 29, 2013 Rise Set
Actual Time 7:18 AM EST 5:29 PM EST
Civil Twilight 6:50 AM EST 5:57 PM EST
Nautical Twilight 6:18 AM EST 6:29 PM EST
Astronomical Twilight 5:47 AM EST 7:01 PM EST
Moon 8:21 PM EST (1/29) 8:17 AM EST (1/29)
Length of Visible Light 11h 07m
Length of Day
10h 10m
Waning Gibbous, 94% of the Moon is Illuminated
Jan 29
Waning Gibbous
Feb 3
Last Quarter
Feb 10
New
Feb 17
First Quarter
Feb 25
Full

Hourly Weather History & Observations

Time (EST) Temp. Windchill Dew Point Humidity Pressure Visibility Wind Dir Wind Speed Gust Speed Precip Events Conditions
12:15 AM 47.1 °F - 45.1 °F 93% 30.06 in 10.0 mi South 3.5 mph - N/A   Clear
12:35 AM 46.6 °F - 45.3 °F 95% 30.05 in 10.0 mi South 3.5 mph - N/A   Clear
12:55 AM 44.8 °F - 44.1 °F 97% 30.06 in 10.0 mi Calm Calm - N/A   Clear
1:15 AM 43.9 °F 41.3 °F 43.9 °F 100% 30.05 in 10.0 mi SSW 4.6 mph - N/A   Clear
1:35 AM 47.1 °F - 46.0 °F 96% 30.05 in 10.0 mi SW 4.6 mph - N/A   Clear
1:55 AM 46.6 °F - 45.9 °F 97% 30.05 in 10.0 mi SW 3.5 mph - N/A   Clear
2:15 AM 45.5 °F - 45.1 °F 99% 30.05 in 10.0 mi Calm Calm - N/A   Clear
2:35 AM 44.2 °F - 44.2 °F 100% 30.06 in 10.0 mi Calm Calm - N/A   Clear
2:55 AM 43.0 °F - 43.0 °F 100% 30.06 in 7.0 mi Calm Calm - N/A   Clear
3:15 AM 40.8 °F - 40.8 °F 100% 30.06 in 7.0 mi Calm Calm - N/A   Scattered Clouds
3:55 AM 42.4 °F 39.6 °F 42.4 °F 100% 30.05 in 7.0 mi SSW 4.6 mph - N/A   Clear
4:15 AM 40.3 °F - 40.3 °F 100% 30.05 in 4.0 mi Calm Calm - N/A   Clear
4:35 AM 38.1 °F - 38.1 °F 100% 30.06 in 2.0 mi Calm Calm - N/A   Clear
4:55 AM 39.9 °F - 39.9 °F 100% 30.06 in 5.0 mi Calm Calm - N/A   Clear
5:15 AM 40.6 °F 38.6 °F 40.6 °F 100% 30.06 in 7.0 mi South 3.5 mph - N/A   Clear
5:35 AM 39.9 °F - 39.9 °F 100% 30.07 in 5.0 mi Calm Calm - N/A   Scattered Clouds
5:55 AM 38.8 °F - 38.8 °F 100% 30.08 in 4.0 mi Calm Calm - N/A   Mostly Cloudy
6:15 AM 40.5 °F - 40.5 °F 100% 30.08 in 5.0 mi Calm Calm - N/A   Overcast
6:35 AM 40.3 °F - 40.3 °F 100% 30.09 in 4.0 mi Calm Calm - N/A   Mostly Cloudy
6:55 AM 40.1 °F - 40.1 °F 100% 30.09 in 3.0 mi Calm Calm - N/A   Scattered Clouds
7:15 AM 39.2 °F - 39.2 °F 100% 30.09 in 1.0 mi Calm Calm - N/A   Overcast
7:35 AM 38.7 °F - 38.7 °F 100% 30.10 in 1.0 mi Calm Calm - N/A   Mostly Cloudy
7:55 AM 38.3 °F - 38.3 °F 100% 30.10 in 2.0 mi Calm Calm - N/A   Clear
8:15 AM 40.6 °F - 40.6 °F 100% 30.11 in 4.0 mi Calm Calm - N/A   Clear
8:35 AM 46.8 °F - 46.6 °F 99% 30.11 in 7.0 mi SW 4.6 mph - N/A   Clear
8:55 AM 50.2 °F - 48.0 °F 92% 30.11 in 10.0 mi SSW 3.5 mph - N/A   Clear
9:15 AM 51.8 °F - 48.9 °F 90% 30.11 in 10.0 mi SSW 4.6 mph - N/A   Clear
9:35 AM 54.0 °F - 50.0 °F 86% 30.11 in 10.0 mi SSW 6.9 mph - N/A   Clear
9:55 AM 55.6 °F - 50.7 °F 84% 30.11 in 10.0 mi SW 4.6 mph - N/A   Clear
10:15 AM 57.4 °F - 51.4 °F 81% 30.11 in 10.0 mi Calm Calm - N/A   Clear
10:35 AM 60.4 °F - 53.4 °F 78% 30.11 in 10.0 mi Calm Calm - N/A   Clear
10:55 AM 62.1 °F - 54.5 °F 76% 30.11 in 10.0 mi SSW 4.6 mph - N/A   Clear
11:15 AM 63.5 °F - 55.0 °F 74% 30.10 in 10.0 mi Calm Calm - N/A   Clear
11:35 AM 65.7 °F - 55.9 °F 71% 30.10 in 10.0 mi South 3.5 mph - N/A   Clear
11:55 AM 68.2 °F - 57.4 °F 68% 30.07 in 10.0 mi SSE 4.6 mph - N/A   Clear
12:15 PM 69.8 °F - 57.6 °F 65% 30.06 in 10.0 mi Calm Calm - N/A   Clear
12:35 PM 72.0 °F - 58.3 °F 62% 30.05 in 10.0 mi Calm Calm - N/A   Clear
12:55 PM 72.5 °F - 58.5 °F 61% 30.05 in 10.0 mi South 4.6 mph - N/A   Clear
1:15 PM 72.7 °F - 58.6 °F 61% 30.04 in 10.0 mi SSW 6.9 mph - N/A   Clear
1:35 PM 73.0 °F - 58.8 °F 61% 30.04 in 10.0 mi South 6.9 mph - N/A   Clear
1:55 PM 74.3 °F - 59.4 °F 60% 30.02 in 10.0 mi South 6.9 mph - N/A   Clear
2:15 PM 74.7 °F - 59.2 °F 58% 30.02 in 10.0 mi SSE 6.9 mph - N/A   Clear
2:35 PM 75.0 °F - 59.2 °F 58% 30.02 in 10.0 mi South 6.9 mph - N/A   Clear
2:55 PM 73.8 °F - 58.8 °F 59% 30.02 in 10.0 mi SSE 8.1 mph - N/A   Clear
3:15 PM 74.7 °F - 59.0 °F 58% 30.02 in 10.0 mi South 6.9 mph - N/A   Clear
3:35 PM 75.2 °F - 59.4 °F 58% 30.02 in 10.0 mi South 5.8 mph - N/A   Clear
3:55 PM 73.2 °F - 58.6 °F 60% 30.02 in 10.0 mi South 5.8 mph - N/A   Clear
4:15 PM 74.3 °F - 59.4 °F 60% 30.01 in 10.0 mi South 5.8 mph - N/A   Clear
4:35 PM 73.0 °F - 59.2 °F 62% 30.00 in 10.0 mi SE 4.6 mph - N/A   Clear
4:55 PM 70.7 °F - 58.6 °F 66% 30.01 in 10.0 mi Calm Calm - N/A   Clear
5:15 PM 67.6 °F - 57.9 °F 71% 30.01 in 10.0 mi SSE 4.6 mph - N/A   Clear
5:35 PM 68.9 °F - 58.3 °F 69% 30.00 in 10.0 mi SSE 4.6 mph - N/A   Clear
5:55 PM 68.4 °F - 58.1 °F 70% 30.00 in 10.0 mi SSE 4.6 mph - N/A   Clear
6:15 PM 65.8 °F - 57.4 °F 74% 30.00 in 10.0 mi SSE 3.5 mph - N/A   Clear
6:35 PM 63.7 °F - 56.7 °F 78% 30.00 in 10.0 mi SE 4.6 mph - N/A   Clear
6:55 PM 61.7 °F - 56.3 °F 82% 30.00 in 10.0 mi Calm Calm - N/A   Clear
7:15 PM 60.8 °F - 56.3 °F 85% 30.00 in 10.0 mi SE 4.6 mph - N/A   Clear
7:35 PM 59.5 °F - 55.6 °F 87% 30.00 in 10.0 mi ESE 4.6 mph - N/A   Clear
7:55 PM 58.3 °F - 55.2 °F 90% 30.00 in 10.0 mi ESE 5.8 mph - N/A   Clear
8:15 PM 57.0 °F - 54.5 °F 91% 30.00 in 10.0 mi ESE 4.6 mph - N/A   Clear
8:35 PM 54.9 °F - 53.2 °F 94% 30.01 in 10.0 mi SE 3.5 mph - N/A   Clear
8:55 PM 53.6 °F - 52.5 °F 96% 30.00 in 10.0 mi SSE 3.5 mph - N/A   Clear
9:15 PM 56.1 °F - 53.8 °F 92% 30.00 in 10.0 mi Calm Calm - N/A   Clear
9:35 PM 58.3 °F - 55.2 °F 90% 30.00 in 10.0 mi SSE 3.5 mph - N/A   Clear
9:55 PM 62.2 °F - 56.3 °F 81% 30.00 in 10.0 mi SSE 4.6 mph - N/A   Clear
10:15 PM 62.6 °F - 55.9 °F 79% 30.00 in 10.0 mi SSE 5.8 mph - N/A   Clear
10:35 PM 62.2 °F - 55.8 °F 79% 30.01 in 10.0 mi South 6.9 mph - N/A   Clear
10:55 PM 61.9 °F - 55.6 °F 80% 29.99 in 10.0 mi SSE 6.9 mph - N/A   Clear
11:15 PM 61.2 °F - 55.4 °F 81% 29.98 in 10.0 mi SSE 5.8 mph - N/A   Clear
11:35 PM 60.8 °F - 55.4 °F 82% 29.97 in 10.0 mi SSE 6.9 mph - N/A   Clear
11:55 PM 60.8 °F - 55.4 °F 82% 29.97 in 10.0 mi South 4.6 mph - N/A   Clear